Current Version              Previous Version:    01  02  03  04  05  06  07  08  09  10  11  12  13  14  15  16  17  18  19  20  21  22  23  24  25  26  27  28  29  30  
   31  32  33  34  35  36  37  38  39  40  41  42  43  44  45  46  47  48  49  50  51  52  53  54  55  56  57  58  59  60  

[Printable]
205
ASUS44 KFWD 211310
RWRTX
NORTH TEXAS HOURLY WEATHER ROUNDUP
NATIONAL WEATHER SERVICE FORT WORTH TX
800 AM CDT MON APR 21 2014

NOTE: "FAIR" INDICATES FEW OR NO CLOUDS BELOW 12,000 FEET WITH NO
SIGNIFICANT WEATHER AND/OR OBSTRUCTIONS TO VISIBILITY.

TXZ118-119-211400-
DALLAS/FORT WORTH METROPLEX

CITY           SKY/WX    TMP DP  RH WIND       PRES   REMARKS
DFW AIRPORT    CLOUDY    64  60  87 S13       30.00R
DALLAS LOVE    CLOUDY    64  60  87 S10       30.02R
FTW MEACHAM    CLOUDY    64  60  87 S10       29.99R
DAL-EXECUTIVE  CLOUDY    64  60  87 VRB5      30.02R
FTW-ALLIANCE   CLOUDY    63  60  90 S7        29.99R
FTW-NAS-JRB    CLOUDY    66  58  75 S12       30.04R
FTW-SPINKS     CLOUDY    63  61  94 S13       30.03R
ARLINGTON      CLOUDY    64  60  87 S9        30.02R
GRAND PRAIRIE  PTSUNNY   64  59  82 S7        30.04R
ADDISON        CLOUDY    64  59  82 S13G22    30.02R
MESQUITE       CLOUDY    63  59  88 S9        30.03S
LANCASTER      CLOUDY    63  58  86 S7        30.04R
$$

TXZ091>094-102>105-117-120-121-131>134-211400-
NORTH CENTRAL TEXAS

CITY           SKY/WX    TMP DP  RH WIND       PRES   REMARKS
SHRMAN/DENISON PTSUNNY   63  57  82 S10       30.00S
GAINESVILLE    CLOUDY    61  59  93 S9        30.01R
BOWIE          CLOUDY    62  61  97 SE6       30.00R FOG
BRIDGEPORT     CLOUDY    63  62  96 S5        30.00R
DECATUR        CLOUDY    62  61  96 SE10      30.00R
DENTON         CLOUDY    63  61  93 S12       30.00R
MCKINNEY       CLOUDY    63  60  90 S12       30.01R
GREENVILLE     PTSUNNY   63  59  88 S7        30.03R
ROCKWALL       CLOUDY    64  60  89 S14       30.02R
TERRELL        PTSUNNY   64  62  93 S9        30.04S
WAXAHACHIE     CLOUDY    63  60  90 S10       30.04S
CLEBURNE       CLOUDY    63  63 100 S9        30.04S
GRANBURY       CLOUDY    64  60  86 SE8       30.02R
$$

TXZ083>090-098>101-113>116-127>130-139>142-154-155-211400-
WESTERN NORTH TEXAS

CITY           SKY/WX    TMP DP  RH WIND       PRES   REMARKS
WICHITA FALLS  CLOUDY    64  63  94 S12       29.95R FOG
WF-KICKAPOO    CLOUDY    64  63  97 S8        29.97S FOG
VERNON         CLOUDY    66  63  89 SW5       29.97R
ABILENE        SUNNY     65  61  87 SW8       30.00R
ABILENE-DYESS  PTSUNNY   65  61  84 W6        30.00R
BRECKENRIDGE   MOSUNNY   66  64  93 CALM      29.99R
GRAHAM         CLOUDY    64  62  93 S5        29.97R
MINERAL WELLS  CLOUDY    62  60  93 SE12      29.98R
STEPHENVILLE   PTSUNNY   62  58  88 S7        30.03R
COMANCHE       PTSUNNY   64  63  94 S6        30.02R
BROWNWOOD      CLOUDY    64  63  94 S6        30.03R
COLEMAN        PTSUNNY   64  62  92 SW7       30.02R
BRADY          CLOUDY    66  64  94 S9        30.03S
$$

TXZ143>147-156>162-174-175-211400-
CENTRAL TEXAS

CITY           SKY/WX    TMP DP  RH WIND       PRES   REMARKS
WACO           CLOUDY    65  61  87 S8        30.04R
WACO-TSTC      CLOUDY    64  63  94 S6        30.05R
WACO-MCGREGOR  CLOUDY    64  57  77 S7        30.06R
HILLSBORO      CLOUDY    64  60  85 S10       30.03S
CORSICANA      CLOUDY    65  60  84 S7        30.06R
MEXIA          CLOUDY    63  61  93 S7        30.05S
HEARNE         CLOUDY    66  63  89 SE5       30.06R
CAMERON        CLOUDY    67  63  89 S6        30.05R
TEMPLE         CLOUDY    63  57  82 S8        30.08R
KILLEEN        CLOUDY    64  61  88 S5        30.04R
KILLEEN-SKYLRK MOSUNNY   63  55  77 SE3       30.03R
GATESVILLE     CLOUDY    61  61 100 CALM      30.06S
HAMILTON       CLOUDY    64  63  97 SE12      30.04R
LAMPASAS       CLOUDY    64  61  93 CALM      30.04R
$$

TXZ095>097-106>112-122>126-135>138-148>153-164>167-211400-
EAST TEXAS

CITY           SKY/WX    TMP DP  RH WIND       PRES   REMARKS
PARIS          PTSUNNY   63  57  82 SE5       30.03S
SULPHUR SPRNGS MOSUNNY   64  60  89 SE6       30.06R
CLARKSVILLE    PTSUNNY   64  63  97 CALM      30.04R
MOUNT PLEASANT MOSUNNY   61  60  99 S5        30.05S
GILMER         CLOUDY    63  63 100 S6        30.07S
MINEOLA        CLOUDY    63  63 100 CALM      30.07R FOG
TYLER          CLOUDY    64  57  78 S8        30.05R
LONGVIEW       SUNNY     63  55  75 SW6       30.06R
MARSHALL       SUNNY     61  54  79 SW3       30.08R
ATHENS         CLOUDY    63  59  88 S6        30.05R
PALESTINE      PTSUNNY   64  59  83 S5        30.08S
JACKSONVILLE   MOSUNNY   60  56  87 S8        30.08S
HENDERSON      MOSUNNY   62  54  76 SW3       30.08R
NACOGDOCHES    CLOUDY    61  55  82 CALM      30.10R
LUFKIN         PTSUNNY   65  60  84 S5        30.08R
$$

SUPPLEMENTAL OBSERVATIONS (CENTRAL)

CITY           SKY/WX    TMP DP  RH WIND       PRES   REMARKS
CADDO GRASSLND   N/A     64  59  82 S8          N/A
PAT MAYSE LAKE   N/A     63  57  82 E6          N/A
GREENVILLE       N/A     63  59  88 S7          N/A
CEDAR HILL       N/A     64  61  88 S7          N/A
PALESTINE        N/A     64  61  88 SW3         N/A
MCGREGOR         N/A     64  59  82 S7          N/A
TEMPLE           N/A     64  61  88 S6          N/A
$$

SUPPLEMENTAL OBSERVATIONS (WEST)

CITY           SKY/WX    TMP DP  RH WIND       PRES   REMARKS
MILLERS CREEK    N/A     64  59  82 SW9         N/A
POSSUM KINGDOM   N/A     64  61  88 S6          N/A
LBJ GRASSLAND    N/A     63  59  88 SE8         N/A
GRANBURY         N/A     63  59  88 SE8         N/A
HAMBY            N/A     63  57  82 SW3         N/A
IVIE RESERVOIR   N/A     66  61  82 SW6         N/A
COLORADO BEND    N/A     64  61  88 S3          N/A
$$

SUPPLEMENTAL OBSERVATIONS (EAST)

CITY           SKY/WX    TMP DP  RH WIND       PRES   REMARKS
TEXARKANA        N/A     64  63  94 S1          N/A
LINDEN           N/A     64  59  82 S3          N/A
HENDERSON        N/A     63  55  77 SW7         N/A
LUFKIN           N/A     64  59  82 MISG        N/A
$$

SUPPLEMENTAL OBSERVATIONS ARE A COLLECTION OF AUTOMATED INSTRUMENTS
THAT ARE MAINTAINED BY A VARIETY OF FEDERAL AND STATE AGENCIES.
CERTAIN ELEMENTS...SUCH AS HUMIDITY VALUES AND SUSTAINED WIND
SPEEDS...MAY BE APPROXIMATED.